EW7906 Weather Reports


time (UTC)temp
C
wind
direction
speed
KPH
gust
KPH
rain 1hr
cm
rain 24hr
cm
rain mn
cm
humidity
%
barometer
mb
20260510105705 37 130 0.0 3.2 0.00 0.00 0.00 100 1010.8
20260510105201 37 130 0.0 11.3 0.00 0.00 0.00 100 1010.7
20260510104924 38 130 0.0 12.9 0.00 0.00 0.00 100 1010.6
20260510104152 37 151 0.0 0.0 0.00 0.00 0.00 100 1010.6
20260510103637 37 151 0.0 4.8 0.00 0.00 0.00 100 1010.6
20260510103117 38 151 0.0 4.8 0.00 0.00 0.00 100 1010.6
20260510102547 38 149 0.0 8.0 0.00 0.00 0.00 100 1010.4
20260510102042 38 149 0.0 9.7 0.00 0.00 0.00 100 1010.3
20260510101541 38 167 1.6 9.7 0.00 0.00 0.00 100 1010.3
20260510101041 38 181 0.0 8.0 0.00 0.00 0.00 100 1010.2
20260510100542 38 160 1.6 8.0 0.00 0.00 0.00 100 1010.2
20260510100040 38 153 4.8 8.0 0.00 0.00 0.00 100 1010.3
20260510095535 38 67 3.2 8.0 0.00 0.00 0.00 100 1010.3
20260510095031 38 115 0.0 11.3 0.00 0.00 0.00 100 1010.2
20260510094522 38 115 3.2 11.3 0.00 0.00 0.00 100 1010.3
20260510094018 38 142 0.0 8.0 0.00 0.00 0.00 100 1010.4
20260510093515 38 120 0.0 4.8 0.00 0.00 0.00 100 1010.3
20260510092957 38 120 0.0 4.8 0.00 0.00 0.00 100 1010.3
20260510092726 38 127 0.0 8.0 0.00 0.00 0.00 100 1010.3
20260510091939 38 127 1.6 8.0 0.00 0.00 0.00 100 1010.0
20260510091430 38 164 0.0 0.0 0.00 0.00 0.00 100 1010.2
20260510091150 38 164 0.0 0.0 0.00 0.00 0.00 100 1010.3
20260510090416 38 164 0.0 0.0 0.00 0.00 0.00 100 1010.3
20260510090136 38 164 0.0 0.0 0.00 0.00 0.00 100 1010.3
20260510085404 38 164 0.0 0.0 0.00 0.00 0.00 100 1010.4
20260510085130 38 164 0.0 0.0 0.00 0.00 0.00 100 1010.4
20260510084358 38 164 0.0 0.0 0.00 0.00 0.00 100 1010.4
20260510083829 38 164 0.0 8.0 0.00 0.00 0.00 100 1010.4
20260510083325 38 164 3.2 8.0 0.00 0.00 0.00 100 1010.5
20260510082819 38 132 0.0 0.0 0.00 0.00 0.00 100 1010.6
20260510082318 38 132 0.0 0.0 0.00 0.00 0.00 100 1010.7
20260510081817 38 132 0.0 0.0 0.00 0.00 0.00 100 1010.7
20260510081805 38 132 0.0 0.0 0.00 0.00 0.00 100 1010.8
20260510080757 38 132 0.0 0.0 0.00 0.00 0.00 100 1010.9
20260510080253 38 132 0.0 0.0 0.00 0.00 0.00 100 1010.8
20260510075749 38 132 0.0 0.0 0.00 0.00 0.00 100 1010.8
20260510075510 38 132 0.0 0.0 0.00 0.00 0.00 100 1010.7
20260510074738 38 132 0.0 0.0 0.00 0.00 0.00 100 1010.8
20260510074217 38 132 0.0 0.0 0.00 0.00 0.00 100 1010.8
20260510073717 38 132 0.0 0.0 0.00 0.00 0.00 100 1010.9
20260510073212 38 132 0.0 4.8 0.00 0.00 0.00 100 1010.9
20260510072658 39 132 0.0 4.8 0.00 0.00 0.00 100 1010.9
20260510072154 38 123 0.0 0.0 0.00 0.00 0.00 100 1010.9
20260510071647 38 123 0.0 0.0 0.00 0.00 0.00 100 1010.9
20260510071146 39 123 0.0 0.0 0.00 0.00 0.00 100 1010.9
20260510070643 39 123 0.0 0.0 0.00 0.00 0.00 100 1010.9
20260510070412 39 123 0.0 0.0 0.00 0.00 0.00 100 1010.9
20260510065627 39 123 0.0 0.0 0.00 0.00 0.00 100 1010.8
20260510065121 39 123 0.0 6.4 0.00 0.00 0.00 100 1010.9
20260510064623 39 123 0.0 6.4 0.00 0.00 0.00 100 1010.9
20260510064101 39 109 0.0 0.0 0.00 0.00 0.00 100 1010.9
20260510063545 39 109 0.0 0.0 0.00 0.00 0.00 100 1011.0
20260510063021 39 109 0.0 0.0 0.00 0.00 0.00 100 1011.0
20260510062513 39 109 0.0 0.0 0.00 0.00 0.00 100 1011.0
20260510062244 39 109 0.0 0.0 0.00 0.00 0.00 100 1010.9
20260510061513 39 109 0.0 0.0 0.00 0.00 0.00 100 1010.9
20260510061013 39 109 0.0 0.0 0.00 0.00 0.00 100 1010.8
20260510060502 39 109 0.0 0.0 0.00 0.00 0.00 100 1010.9
20260510055956 39 109 0.0 0.0 0.00 0.00 0.00 100 1010.8
20260510055455 40 109 0.0 0.0 0.00 0.00 0.00 100 1010.8
20260510054955 40 109 0.0 8.0 0.00 0.00 0.00 100 1010.9
20260510054430 40 109 1.6 8.0 0.00 0.00 0.00 100 1010.8
20260510053909 40 135 0.0 0.0 0.00 0.00 0.00 100 1010.8
20260510053406 40 135 0.0 0.0 0.00 0.00 0.00 100 1010.8
20260510053401 40 135 0.0 0.0 0.00 0.00 0.00 100 1010.7
20260510052355 40 135 0.0 6.4 0.00 0.00 0.00 100 1010.8
20260510051849 40 135 0.0 6.4 0.00 0.00 0.00 100 1010.8
20260510051334 40 113 0.0 6.4 0.00 0.00 0.00 100 1010.8
20260510050833 40 104 0.0 4.8 0.00 0.00 0.00 100 1010.9
20260510050334 40 104 0.0 9.7 0.00 0.00 0.00 100 1010.8
20260510045832 40 104 4.8 9.7 0.00 0.00 0.00 100 1010.8
20260510045334 40 123 0.0 4.8 0.00 0.00 0.00 100 1010.7
20260510044826 40 123 0.0 4.8 0.00 0.00 0.00 100 1010.8
20260510044316 40 137 0.0 0.0 0.00 0.00 0.00 100 1010.7
20260510043807 40 137 0.0 0.0 0.00 0.00 0.00 100 1010.6
20260510043303 40 137 0.0 0.0 0.00 0.00 0.00 100 1010.6
20260510043028 40 137 0.0 0.0 0.00 0.00 0.00 100 1010.6
20260510042258 40 137 0.0 0.0 0.00 0.00 0.00 100 1010.6
20260510041754 40 137 0.0 0.0 0.00 0.00 0.00 100 1010.5
20260510041222 40 137 0.0 0.0 0.00 0.00 0.00 100 1010.5
20260510040715 40 137 0.0 0.0 0.00 0.00 0.00 100 1010.5
20260510040213 40 137 0.0 0.0 0.00 0.00 0.00 100 1010.4
20260510035708 40 137 0.0 0.0 0.00 0.00 0.00 100 1010.4
20260510035202 40 137 0.0 0.0 0.00 0.00 0.00 100 1010.4
20260510034657 40 137 0.0 0.0 0.00 0.00 0.00 100 1010.3
20260510034156 41 137 0.0 0.0 0.00 0.00 0.00 100 1010.3
20260510033927 40 137 0.0 0.0 0.00 0.00 0.00 100 1010.3
20260510033151 41 137 0.0 0.0 0.00 0.00 0.00 100 1010.3
20260510032646 41 137 0.0 0.0 0.00 0.00 0.00 100 1010.2
20260510032412 41 137 0.0 0.0 0.00 0.00 0.00 100 1010.2
20260510031848 41 137 0.0 0.0 0.00 0.00 0.00 100 1010.0
20260510031116 41 137 0.0 0.0 0.00 0.00 0.00 100 1010.0
20260510030616 41 137 0.0 0.0 0.00 0.00 0.00 100 1009.9
20260510030110 41 137 0.0 0.0 0.00 0.00 0.00 100 1009.7
20260510025817 41 137 0.0 0.0 0.00 0.00 0.00 100 1009.7
20260510025044 41 137 0.0 0.0 0.00 0.00 0.00 100 1009.6
20260510024542 41 137 0.0 6.4 0.00 0.00 0.00 100 1009.6
20260510024031 41 137 3.2 6.4 0.00 0.00 0.00 100 1009.5
20260510023512 41 142 0.0 4.8 0.00 0.00 0.00 100 1009.4
20260510023002 41 142 0.0 6.4 0.00 0.00 0.00 100 1009.3
20260510022502 41 144 0.0 6.4 0.00 0.00 0.00 100 1009.2
20260510022002 41 127 0.0 0.0 0.00 0.00 0.00 100 1009.2
20260510021501 41 127 0.0 0.0 0.00 0.00 0.00 100 1009.1
20260510020956 41 127 0.0 0.0 0.00 0.00 0.00 100 1009.0
20260510020455 41 127 0.0 0.0 0.00 0.00 0.00 100 1008.9
20260510020219 41 127 0.0 0.0 0.00 0.00 0.00 100 1008.8
20260510015443 41 127 0.0 0.0 0.00 0.00 0.00 100 1008.7
20260510014939 41 127 0.0 0.0 0.00 0.00 0.00 100 1008.7
20260510014710 41 127 0.0 0.0 0.00 0.00 0.00 100 1008.8
20260510014544 41 127 0.0 0.0 0.00 0.00 0.00 100 1008.7
20260510013429 41 127 0.0 0.0 0.00 0.00 0.00 100 1008.6
20260510013149 41 127 0.0 0.0 0.00 0.00 0.00 100 1008.6
20260510012403 42 127 0.0 0.0 0.00 0.00 0.00 100 1008.5
20260510011857 42 127 0.0 4.8 0.00 0.00 0.00 100 1008.4
20260510011340 42 127 0.0 9.7 0.00 0.00 0.00 100 1008.4
20260510010835 42 112 0.0 11.3 0.00 0.00 0.00 100 1008.4
20260510010603 42 112 4.8 11.3 0.00 0.00 0.00 100 1008.4
20260510005829 42 130 0.0 4.8 0.00 0.00 0.00 100 1008.4
20260510005306 42 130 0.0 3.2 0.00 0.00 0.00 100 1008.3
20260510004745 42 130 0.0 14.5 0.00 0.00 0.00 100 1008.3
20260510004231 42 130 3.2 14.5 0.00 0.00 0.00 100 1008.2
20260510003727 42 149 0.0 9.7 0.00 0.00 0.00 100 1008.2
20260510003218 42 139 3.2 9.7 0.00 0.00 0.00 100 1008.1
20260510002704 42 116 0.0 6.4 0.00 0.00 0.00 100 1008.1
20260510002158 42 125 0.0 6.4 0.00 0.00 0.00 100 1008.0
20260510001655 43 127 1.6 9.7 0.00 0.00 0.00 100 1008.0
20260510001151 43 171 3.2 9.7 0.00 0.00 0.00 100 1008.0
20260510000917 43 120 0.0 9.7 0.00 0.00 0.00 100 1007.9
20260510000146 43 122 0.0 11.3 0.00 0.00 0.00 100 1007.9
20260509235643 43 115 1.6 11.3 0.00 0.00 0.00 100 1007.8
20260509235141 43 116 0.0 0.0 0.00 0.00 0.00 100 1007.7
20260509234622 43 116 0.0 4.8 0.00 0.00 0.00 100 1007.7
20260509234101 43 116 0.0 4.8 0.00 0.00 0.00 100 1007.7
20260509234051 43 120 0.0 8.0 0.00 0.00 0.00 100 1007.6
20260509233048 43 139 3.2 9.7 0.00 0.00 0.00 100 1007.6
20260509232543 43 136 4.8 9.7 0.00 0.00 0.00 100 1007.7
20260509232044 43 144 6.4 9.7 0.00 0.00 0.00 100 1007.6
20260509231545 43 137 0.0 8.0 0.00 0.00 0.00 100 1007.5
20260509231044 43 132 4.8 8.0 0.00 0.00 0.00 100 1007.5
20260509230815 43 125 0.0 8.0 0.00 0.00 0.00 100 1007.6
20260509230043 43 53 0.0 8.0 0.00 0.00 0.00 100 1007.6
20260509225543 43 161 0.0 4.8 0.00 0.00 0.00 100 1007.5
20260509225039 43 22 0.0 4.8 0.00 0.00 0.00 100 1007.6
20260509224542 43 125 1.6 9.7 0.00 0.00 0.00 100 1007.5
20260509224537 43 37 0.0 6.4 0.00 0.00 0.00 100 1007.6
20260509223537 43 113 4.8 9.7 0.00 0.00 0.00 100 1007.5
20260509223307 43 78 0.0 8.0 0.00 0.00 0.00 100 1007.6
20260509222533 43 78 1.6 11.3 0.00 0.00 0.00 100 1007.6
20260509222035 43 139 4.8 11.3 0.00 0.00 0.00 100 1007.6
20260509221532 43 132 8.0 14.5 0.00 0.00 0.00 100 1007.6
20260509221033 43 102 6.4 16.1 0.00 0.00 0.00 100 1007.5
20260509220531 43 147 4.8 16.1 0.00 0.00 0.00 100 1007.6
20260509220031 43 153 1.6 11.3 0.00 0.00 0.00 100 1007.6
20260509215531 43 132 8.0 14.5 0.00 0.00 0.00 100 1007.6
20260509215258 43 163 6.4 14.5 0.00 0.00 0.00 100 1007.6
20260509214757 43 139 6.4 14.5 0.00 0.00 0.00 100 1007.6
20260509214027 43 108 0.0 11.3 0.00 0.00 0.00 100 1007.7
20260509213525 43 142 0.0 6.4 0.00 0.00 0.00 100 1007.8
20260509213256 44 130 1.6 12.9 0.00 0.00 0.00 100 1007.8
20260509212522 44 36 4.8 12.9 0.00 0.00 0.00 100 1007.8
20260509212019 43 23 3.2 9.7 0.00 0.00 0.00 100 1007.9
20260509211510 43 102 3.2 9.7 0.00 0.00 0.00 100 1007.9
20260509211003 43 135 3.2 8.0 0.00 0.00 0.00 100 1008.1
20260509210459 43 132 1.6 8.0 0.00 0.00 0.00 100 1008.2
20260509205949 43 161 3.2 8.0 0.00 0.00 0.00 100 1008.2
20260509205445 44 358 0.0 9.7 0.00 0.00 0.00 100 1008.2
20260509204944 44 330 3.2 9.7 0.00 0.00 0.00 100 1008.2
20260509204443 43 57 3.2 11.3 0.00 0.00 0.00 100 1008.3
20260509204214 43 149 8.0 12.9 0.00 0.00 0.00 100 1008.4
20260509203443 43 126 3.2 12.9 0.00 0.00 0.00 100 1008.5
20260509203214 43 168 6.4 16.1 0.00 0.00 0.00 100 1008.5
20260509202443 43 87 8.0 16.1 0.00 0.00 0.00 100 1008.5
20260509201943 43 99 6.4 14.5 0.00 0.00 0.00 100 1008.5
20260509201441 43 97 4.8 16.1 0.00 0.00 0.00 100 1008.8
20260509200936 43 140 8.0 16.1 0.00 0.00 0.00 100 1009.0
20260509200437 42 167 6.4 22.5 0.00 0.00 0.00 100 1009.2
20260509195936 42 143 8.0 22.5 0.00 0.00 0.00 100 1009.2
20260509195436 43 101 9.7 20.9 0.00 0.00 0.00 100 1009.1
20260509194936 43 122 0.0 14.5 0.00 0.00 0.00 100 1009.2
20260509194436 44 22 0.0 9.7 0.00 0.00 0.00 100 1009.0
20260509193930 44 22 0.0 20.9 0.00 0.00 0.00 100 1009.0
20260509193422 45 30 3.2 20.9 0.00 0.00 0.00 100 1008.9
20260509192920 45 264 1.6 8.0 0.00 0.00 0.00 100 1008.9
20260509192416 45 4 6.4 9.7 0.00 0.00 0.00 100 1009.0
20260509191916 45 202 6.4 9.7 0.00 0.00 0.00 100 1009.1
20260509191415 44 225 0.0 11.3 0.00 0.00 0.00 100 1009.0
20260509191404 44 307 1.6 11.3 0.00 0.00 0.00 100 1009.1
20260509190621 44 219 1.6 9.7 0.00 0.00 0.00 100 1009.1
20260509185849 44 36 3.2 12.9 0.00 0.00 0.00 100 1009.2
20260509185615 44 223 4.8 12.9 0.00 0.00 0.00 100 1009.3
20260509184845 44 209 1.6 11.3 0.00 0.00 0.00 100 1009.4
20260509184615 43 32 4.8 9.7 0.00 0.00 0.00 100 1009.5
20260509183342 43 216 1.6 14.5 0.00 0.00 0.00 100 1009.7
20260509183109 43 198 6.4 14.5 0.00 0.00 0.00 100 1009.7
20260509182333 43 18 1.6 12.9 0.00 0.00 0.00 100 1009.7
20260509181829 43 22 9.7 14.5 0.00 0.00 0.00 100 1009.9
20260509181823 43 288 1.6 14.5 0.00 0.00 0.00 100 1010.2
20260509181051 43 168 0.0 12.9 0.00 0.00 0.00 100 1010.2
20260509180320 43 203 6.4 9.7 0.00 0.00 0.00 100 1010.2
20260509175817 42 330 0.0 9.7 0.00 0.00 0.00 100 1010.2
20260509175308 42 243 1.6 9.7 0.00 0.00 0.00 100 1010.3
20260509174807 42 181 3.2 11.3 0.00 0.00 0.00 100 1010.3
20260509174307 42 177 0.0 14.5 0.00 0.00 0.00 100 1010.3
20260509173756 42 230 0.0 14.5 0.00 0.00 0.00 100 1010.4
20260509173256 42 180 6.4 11.3 0.00 0.00 0.00 100 1010.7
20260509173028 42 343 0.0 9.7 0.00 0.00 0.00 100 1010.9
20260509172253 42 1 1.6 9.7 0.00 0.00 0.00 100 1010.9
20260509171752 42 322 1.6 9.7 0.00 0.00 0.00 100 1010.9
20260509171248 42 355 0.0 9.7 0.00 0.00 0.00 100 1011.0
20260509170747 42 358 0.0 9.7 0.00 0.00 0.00 100 1010.9
20260509170244 41 358 4.8 11.3 0.00 0.00 0.00 100 1010.8
20260509165745 41 194 1.6 14.5 0.00 0.00 0.00 100 1010.7
20260509165244 41 215 6.4 14.5 0.00 0.00 0.00 100 1010.8
20260509165017 41 175 4.8 12.9 0.00 0.00 0.00 100 1010.8
20260509164346 41 164 3.2 9.7 0.00 0.00 0.00 100 1010.8
20260509163237 41 192 4.8 12.9 0.00 0.00 0.00 100 1010.8
20260509162723 41 32 0.0 11.3 0.00 0.00 0.00 100 1010.8
20260509162219 41 240 4.8 11.3 0.00 0.00 0.00 100 1010.8
20260509161708 41 9 6.4 11.3 0.00 0.00 0.00 100 1010.9
20260509161209 40 220 0.0 8.0 0.00 0.00 0.00 100 1010.9
20260509160709 40 191 0.0 8.0 0.00 0.00 0.00 100 1010.8
20260509160202 40 108 0.0 9.7 0.00 0.00 0.00 100 1010.8
20260509155935 39 143 0.0 11.3 0.00 0.00 0.00 100 1010.9
20260509155201 39 144 6.4 14.5 0.00 0.00 0.00 100 1011.0
20260509154702 40 168 8.0 16.1 0.00 0.00 0.00 100 1011.0
20260509154202 39 158 0.0 20.9 0.00 0.00 0.00 100 1011.0
20260509153702 39 191 6.4 20.9 0.00 0.00 0.00 100 1011.0
20260509153202 39 170 4.8 16.1 0.00 0.00 0.00 100 1010.8
20260509152932 38 144 6.4 12.9 0.00 0.00 0.00 100 1010.7
20260509152201 39 146 3.2 17.7 0.00 0.00 0.00 100 1010.6
20260509151659 38 178 8.0 17.7 0.00 0.00 0.00 100 1010.5
20260509151429 38 232 9.7 16.1 0.00 0.00 0.00 100 1010.5
20260509150658 38 142 8.0 12.9 0.00 0.00 0.00 100 1010.5
20260509150153 38 135 4.8 12.9 0.00 0.00 0.00 100 1010.4
20260509145653 38 112 4.8 12.9 0.00 0.00 0.00 100 1010.5
20260509145424 38 180 6.4 16.1 0.00 0.00 0.00 100 1010.4
20260509144652 38 147 9.7 16.1 0.00 0.00 0.00 100 1010.4
20260509144425 38 140 6.4 12.9 0.00 0.00 0.00 1 1010.4
20260509143651 38 217 6.4 11.3 0.00 0.00 0.00 100 1010.4
20260509143155 38 140 3.2 14.5 0.00 0.00 0.00 100 1010.2
20260509143150 38 205 4.8 9.7 0.00 0.00 0.00 100 1010.4
20260509142146 38 184 8.0 14.5 0.00 0.00 0.00 100 1010.0
20260509141646 38 125 4.8 11.3 0.00 0.00 0.00 100 1009.9
20260509141143 38 165 6.4 11.3 0.00 0.00 0.00 100 1009.7
20260509140644 38 142 1.6 9.7 0.00 0.00 0.00 100 1009.5
20260509140143 38 135 0.0 9.7 0.00 0.00 0.00 3 1009.5
20260509135640 38 140 0.0 9.7 0.00 0.00 0.00 7 1009.4
20260509135408 38 143 3.2 9.7 0.00 0.00 0.00 26 1009.4
20260509134637 38 126 0.0 8.0 0.00 0.00 0.00 100 1009.5
20260509134132 38 153 0.0 8.0 0.00 0.00 0.00 100 1009.6
20260509133848 38 153 0.0 8.0 0.00 0.00 0.00 100 1009.7
20260509133600 38 167 0.0 3.2 0.00 0.00 0.00 100 1009.6
20260509132831 38 167 0.0 8.0 0.00 0.00 0.00 100 1009.7
20260509132058 37 167 3.2 8.0 0.00 0.00 0.00 100 1010.2
20260509131545 37 151 0.0 0.0 0.00 0.00 0.00 100 1010.0
20260509131041 37 151 0.0 0.0 0.00 0.00 0.00 100 1010.4
20260509130537 37 151 0.0 0.0 0.00 0.00 0.00 100 1010.7
20260509130031 37 151 0.0 0.0 0.00 0.00 0.00 100 1010.7
20260509125754 37 151 0.0 0.0 0.00 0.00 0.00 100 1010.7
20260509125017 37 151 0.0 0.0 0.00 0.00 0.00 100 1010.5
20260509124512 38 151 0.0 0.0 0.00 0.00 0.00 100 1010.4
20260509124000 37 151 0.0 0.0 0.00 0.00 0.00 100 1010.4
20260509123452 38 151 0.0 0.0 0.00 0.00 0.00 100 1010.3
20260509122945 38 151 0.0 0.0 0.00 0.00 0.00 100 1010.3
20260509122445 38 151 0.0 0.0 0.00 0.00 0.00 100 1009.9
20260509121930 38 151 0.0 0.0 0.00 0.00 0.00 100 1009.9
20260509121415 38 151 0.0 0.0 0.00 0.00 0.00 100 1010.0
20260509120907 37 151 0.0 0.0 0.00 0.00 0.00 100 1010.0
20260509120402 38 151 0.0 0.0 0.00 0.00 0.00 100 1010.0
20260509115859 37 151 0.0 0.0 0.00 0.00 0.00 100 1009.9
20260509115357 38 151 0.0 0.0 0.00 0.00 0.00 100 1010.2
20260509114849 37 151 0.0 0.0 0.00 0.00 0.00 100 1010.4
20260509114345 38 151 0.0 0.0 0.00 0.00 0.00 100 1010.5
20260509113839 38 151 0.0 0.0 0.00 0.00 0.00 100 1010.6
20260509113338 38 151 0.0 0.0 0.00 0.00 0.00 100 1010.8
20260509112839 38 151 0.0 0.0 0.00 0.00 0.00 100 1010.9
20260509112559 38 151 0.0 0.0 0.00 0.00 0.00 100 1011.1
20260509111828 38 151 0.0 0.0 0.00 0.00 0.00 100 1011.2
20260509111322 38 151 0.0 0.0 0.00 0.00 0.00 100 1011.2
20260509111036 38 151 0.0 0.0 0.00 0.00 0.00 100 1011.2
20260509110238 38 151 0.0 0.0 0.00 0.00 0.00 100 1011.3